Printer-friendly version

IAU Minor Planet Center

Minor Planet Center

MPEC 2006-D52 : 2006 DO62

The following Minor Planet Electronic Circular may be linked-to from your own Web pages, but must not otherwise be redistributed electronically.


Read MPEC 2006-D51 Read MPEC 2006-D53


M.P.E.C. 2006-D52                                Issued 2006 Feb. 27, 18:42 UT

     The Minor Planet Electronic Circulars contain information on unusual
         minor planets and routine data on comets.  They are published
   on behalf of Commission 20 of the International Astronomical Union by the
          Minor Planet Center, Smithsonian Astrophysical Observatory,
                          Cambridge, MA 02138, U.S.A.

                  Supported in part by the Brinson Foundation
                  Supported in part by the TABASGO Foundation
             Prepared using the Tamkin Foundation Computer Network

                              MPC@CFA.HARVARD.EDU
          URL http://cfa-www.harvard.edu/iau/mpc.html  ISSN 1523-6714

                                   2006 DO62

Observations:
     K06D62O* C2006 02 24.29931 10 27 07.76 +07 59 49.1                 ED052G96
     K06D62O  C2006 02 24.30735 10 27 37.42 +07 54 36.0          19.8 V ED052G96
     K06D62O  C2006 02 24.31543 10 28 07.28 +07 49 18.1                 ED052G96
     K06D62O  C2006 02 24.35739 10 30 46.33 +07 21 03.7          18.5 V ED052G96
     K06D62O  C2006 02 24.35763 10 30 47.30 +07 20 53.5          18.3 V ED052G96
     K06D62O  C2006 02 24.35788 10 30 48.20 +07 20 43.5          18.5 V ED052G96
     K06D62O  C2006 02 24.35813 10 30 49.21 +07 20 33.0          18.4 V ED052G96
     K06D62O  C2006 02 24.42526 10 35 19.44 +06 32 28.6          18.1 V ED052G96
     K06D62O  C2006 02 24.42551 10 35 20.46 +06 32 17.1          18.4 V ED052G96
     K06D62O  C2006 02 24.42576 10 35 21.54 +06 32 06.3          18.1 V ED052G96
     K06D62O  C2006 02 24.42601 10 35 22.58 +06 31 54.9          18.4 V ED052G96

Observer details:
G96 Mt. Lemmon Survey.  Observer E. J. Christensen.  Measurers E. C. Beshore,
    E. J. Christensen, G. J. Garradd, A. D. Grauer, R. E. Hill, R. A. Kowalski,
    S. M. Larson, R. H. McNaught.  1.5-m reflector + CCD.

Orbital elements:
2006 DO62                                                Earth MOID = 0.0013 AU
Epoch 2006 Mar. 6.0 TT = JDT 2453800.5                  MPC
M 352.87849              (2000.0)            P               Q
n   0.39005310     Peri.  216.18649     -0.98145963     +0.19138709
a   1.8551836      Node   334.84127     -0.16961332     -0.89249306
e   0.4948897      Incl.    1.40058     -0.08926542     -0.40844475
P   2.53           H   28.5           G   0.15           U   9
Residuals in seconds of arc
060224 G96  0.9-  0.2+    060224 G96  0.5+  0.1-    060224 G96  0.3-  0.2-
060224 G96  0.8+  0.0     060224 G96  0.5-  0.3+    060224 G96  0.2+  0.1+
060224 G96  0.1+  0.6-    060224 G96  0.1+  0.1+    060224 G96  0.0   0.1-
060224 G96  0.1-  0.2+    060224 G96  0.1+  0.1+

Ephemeris:
2006 DO62                a,e,i = 1.86, 0.49, 1                   q = 0.9371
Date    TT    R. A. (2000) Decl.     Delta      r     Elong.  Phase     V
2006 02 24.0  10 09.51   +10 52.5    0.0105   1.000   175.3     4.6    19.0
2006 02 24.5  10 41.64   +05 44.1    0.00825  0.998   175.3     4.7    18.5
2006 02 25.0  11 33.40   -02 53.9    0.00641  0.996   160.4    19.5    18.5
2006 02 25.5  12 57.04   -15 57.6    0.00535  0.994   136.6    43.2    18.8
2006 02 26.0  14 48.90   -28 14.4    0.00553  0.992   108.5    71.2    19.7
2006 02 26.5  16 28.59   -33 16.8    0.00685  0.990    87.1    92.5    20.9
2006 02 27.0  17 33.73   -33 46.4    0.00881  0.988    74.0   105.5    22.1
2006 02 27.5  18 13.57   -33 00.9    0.0111   0.986    66.1   113.3    23.1
2006 02 28.0  18 39.03   -32 06.0    0.0135   0.984    61.2   118.1    23.8

Kyle E. Smalley              (C) Copyright 2006 MPC           M.P.E.C. 2006-D52

Read MPEC 2006-D51 Read MPEC 2006-D53


Our Web policy. Index to the CBAT/MPC/ICQ pages.


Valid HTML 4.01!